Location: ???? ?????????
(44.3677°N, 135.2344°E)
Time: 15:02:54
(UTC+00:00)

ACS3 Solar Sail - Visible Passes

Search period start: 17 July 2025 00:00
Search period end: 27 July 2025 00:00
Orbit: 911 x 1023 km, 97.4° (Epoch: 17 July)

Date Brightness Start Highest point End Pass type
(mag) Time Alt. Az. Time Alt. Az. Time Alt. Az.
17 Jul 4.6 18:16:22 10° ENE 18:18:18 12° E 18:20:16 10° ESE visible
18 Jul 4.3 18:37:01 10° NE 18:41:07 19° E 18:45:16 10° SE visible
22 Jul 4.4 18:23:54 10° NE 18:27:23 15° E 18:30:54 10° ESE visible
23 Jul 4.0 18:45:15 10° NE 18:50:04 24° E 18:54:56 10° SE visible
26 Jul 4.5 18:10:51 10° ENE 18:13:22 13° E 18:15:54 10° ESE visible
